THY4 KJFK-LTFM

Flight info

Callsign THY4
Flight time N/A
Altitude 35000
Route MERIT DCT HFD DCT PUT DCT BOS DCT EBONY DCT LOMSI/M084F350 DCT 56N050W 60N040W 61N030W 61N020W DCT BALIX/N0485F350 DCT NINEX/N0488F370 DCT STN DCT REKNA DCT PETIL DCT DOROR DCT OMELO DCT ERGOM/N0485F390 DCT TEGRI DCT XANEX L606 GASRU T390 RILEX
Aircraft B77W/H-SDE1E2E3FGHIJ2J3J4J5M1RWXY/LB1D1

Departure

Time 2026-05-09 17:07
Airport John F. Kennedy International Airport (KJFK)

Arrival

Time N/A
Airport İstanbul Airport (LTFM)
Time Latitude Longitude Altitude Speed Heading
2026-05-09 15:27 40.64284 -73.79198 20 ft 0 kts 105°
2026-05-09 16:44 40.64284 -73.79201 20 ft 2 kts 105°
2026-05-09 16:44 40.64291 -73.79234 25 ft 4 kts 105°
2026-05-09 16:45 40.64297 -73.79262 25 ft 3 kts 107°
2026-05-09 16:45 40.64306 -73.79288 26 ft 4 kts 138°
2026-05-09 16:45 40.64326 -73.79303 24 ft 4 kts 162°
2026-05-09 16:45 40.64340 -73.79309 25 ft 2 kts 158°
2026-05-09 16:46 40.64321 -73.79309 26 ft 4 kts 189°
2026-05-09 16:46 40.64300 -73.79324 24 ft 4 kts 215°
2026-05-09 16:46 40.64282 -73.79345 24 ft 2 kts 224°
2026-05-09 16:46 40.64269 -73.79361 23 ft 4 kts 223°
2026-05-09 16:47 40.64247 -73.79390 24 ft 1 kts 226°
2026-05-09 16:53 40.64246 -73.79392 20 ft 1 kts 226°
2026-05-09 16:54 40.64234 -73.79410 22 ft 5 kts 232°
2026-05-09 16:54 40.64226 -73.79465 20 ft 8 kts 283°
2026-05-09 16:54 40.64277 -73.79494 22 ft 10 kts 356°
2026-05-09 16:54 40.64356 -73.79491 20 ft 13 kts
2026-05-09 16:55 40.64455 -73.79497 20 ft 15 kts 355°
2026-05-09 16:55 40.64562 -73.79513 20 ft 16 kts 347°
2026-05-09 16:55 40.64658 -73.79578 20 ft 16 kts 326°
2026-05-09 16:55 40.64747 -73.79661 20 ft 16 kts 326°
2026-05-09 16:56 40.64850 -73.79704 20 ft 16 kts 357°
2026-05-09 16:56 40.64958 -73.79704 20 ft 14 kts
2026-05-09 16:56 40.65047 -73.79660 21 ft 14 kts 41°
2026-05-09 16:56 40.65102 -73.79554 21 ft 14 kts 59°
2026-05-09 16:57 40.65150 -73.79442 20 ft 14 kts 60°
2026-05-09 16:57 40.65197 -73.79329 21 ft 14 kts 65°
2026-05-09 16:57 40.65203 -73.79203 20 ft 14 kts 101°
2026-05-09 16:57 40.65175 -73.79078 23 ft 14 kts 108°
2026-05-09 16:58 40.65144 -73.78951 21 ft 15 kts 104°
2026-05-09 16:58 40.65140 -73.78819 20 ft 15 kts 84°
2026-05-09 16:58 40.65171 -73.78693 50 ft 15 kts 62°
2026-05-09 16:58 40.65220 -73.78577 27 ft 16 kts 60°
2026-05-09 16:59 40.65266 -73.78432 23 ft 18 kts 86°
2026-05-09 16:59 40.65222 -73.78282 23 ft 18 kts 119°
2026-05-09 16:59 40.65159 -73.78143 22 ft 18 kts 121°
2026-05-09 16:59 40.65096 -73.78003 21 ft 18 kts 120°
2026-05-09 17:00 40.65032 -73.77864 21 ft 18 kts 121°
2026-05-09 17:00 40.64969 -73.77725 21 ft 18 kts 121°
2026-05-09 17:00 40.64906 -73.77585 20 ft 18 kts 120°
2026-05-09 17:00 40.64844 -73.77447 20 ft 17 kts 121°
2026-05-09 17:01 40.64796 -73.77343 21 ft 10 kts 121°
2026-05-09 17:01 40.64763 -73.77269 21 ft 9 kts 119°
2026-05-09 17:01 40.64764 -73.77191 22 ft 9 kts 64°
2026-05-09 17:01 40.64799 -73.77123 26 ft 9 kts 55°
2026-05-09 17:02 40.64834 -73.77056 28 ft 9 kts 54°
2026-05-09 17:02 40.64870 -73.76989 28 ft 9 kts 54°
2026-05-09 17:02 40.64907 -73.76922 26 ft 9 kts 54°
2026-05-09 17:02 40.64947 -73.76849 23 ft 10 kts 53°
2026-05-09 17:03 40.64983 -73.76770 22 ft 10 kts 77°
2026-05-09 17:04 40.65092 -73.76479 20 ft 0 kts 98°
2026-05-09 17:05 40.65092 -73.76477 20 ft 1 kts 99°
2026-05-09 17:05 40.65090 -73.76465 20 ft 2 kts 104°
2026-05-09 17:05 40.65080 -73.76432 20 ft 6 kts 116°
2026-05-09 17:05 40.65047 -73.76375 20 ft 9 kts 147°
2026-05-09 17:06 40.64990 -73.76382 20 ft 5 kts 208°
2026-05-09 17:06 40.64989 -73.76383 20 ft 0 kts 208°
2026-05-09 17:06 40.64945 -73.76415 20 ft 20 kts 210°
2026-05-09 17:06 40.64642 -73.76653 23 ft 91 kts 211°
2026-05-09 17:07 40.63860 -73.77261 27 ft 167 kts 210°
2026-05-09 17:07 40.63113 -73.77833 164 ft 192 kts 210°
2026-05-09 17:07 40.61569 -73.79026 1367 ft 195 kts 214°
2026-05-09 17:07 40.60366 -73.79953 2072 ft 210 kts 213°
2026-05-09 17:08 40.59029 -73.80989 2407 ft 232 kts 214°
2026-05-09 17:08 40.56185 -73.83161 4056 ft 236 kts 211°
2026-05-09 17:08 40.54554 -73.83672 4741 ft 252 kts 183°
2026-05-09 17:09 40.52843 -73.83011 5451 ft 267 kts 154°
2026-05-09 17:09 40.51468 -73.81311 6037 ft 286 kts 126°
2026-05-09 17:09 40.50735 -73.78804 6632 ft 299 kts 98°
2026-05-09 17:09 40.50880 -73.76074 7298 ft 302 kts 70°
2026-05-09 17:10 40.51866 -73.73671 8008 ft 298 kts 46°
2026-05-09 17:10 40.53281 -73.71719 8707 ft 300 kts 39°
2026-05-09 17:10 40.54808 -73.69833 9446 ft 301 kts 38°
2026-05-09 17:10 40.56347 -73.67952 9978 ft 304 kts 37°
2026-05-09 17:11 40.57920 -73.66050 9953 ft 306 kts 34°
2026-05-09 17:11 40.59683 -73.64559 10045 ft 302 kts 20°
2026-05-09 17:11 40.61639 -73.63350 10265 ft 321 kts 18°
2026-05-09 17:11 40.63761 -73.62119 10457 ft 345 kts 18°
2026-05-09 17:12 40.66029 -73.60788 10671 ft 367 kts 19°
2026-05-09 17:12 40.68383 -73.59357 11282 ft 377 kts 19°
2026-05-09 17:12 40.70778 -73.57861 12066 ft 384 kts 19°
2026-05-09 17:12 40.73196 -73.56321 13006 ft 387 kts 19°
2026-05-09 17:13 40.75590 -73.54778 13893 ft 390 kts 18°
2026-05-09 17:13 40.78052 -73.53187 14603 ft 397 kts 18°
2026-05-09 17:13 40.80550 -73.51567 15283 ft 404 kts 19°
2026-05-09 17:13 40.83092 -73.49914 15974 ft 410 kts 19°
2026-05-09 17:14 40.85671 -73.48235 16706 ft 416 kts 19°
2026-05-09 17:14 40.88291 -73.46528 17419 ft 422 kts 19°
2026-05-09 17:14 40.90952 -73.44792 18095 ft 429 kts 19°
2026-05-09 17:14 40.93649 -73.43032 18707 ft 435 kts 19°
2026-05-09 17:15 40.96372 -73.41251 19364 ft 439 kts 19°
2026-05-09 17:15 40.99122 -73.39451 20018 ft 442 kts 19°
2026-05-09 17:15 41.01900 -73.37631 20647 ft 447 kts 19°
2026-05-09 17:15 41.04671 -73.35815 21234 ft 452 kts 19°
2026-05-09 17:16 41.07513 -73.33951 21826 ft 457 kts 19°
2026-05-09 17:17 41.28096 -73.20392 25572 ft 483 kts 18°
2026-05-09 17:18 41.31088 -73.18414 26048 ft 486 kts 18°
2026-05-09 17:18 41.34156 -73.16344 26495 ft 492 kts 21°
2026-05-09 17:18 41.36984 -73.13765 26924 ft 509 kts 33°
2026-05-09 17:18 41.39538 -73.10421 27361 ft 523 kts 44°
2026-05-09 17:19 41.41685 -73.06432 27773 ft 533 kts 54°
2026-05-09 17:19 41.43554 -73.02137 28149 ft 538 kts 56°
2026-05-09 17:19 41.45393 -72.97769 28506 ft 542 kts 56°
2026-05-09 17:19 41.47243 -72.93380 28883 ft 545 kts 55°
2026-05-09 17:20 41.49124 -72.88979 29244 ft 547 kts 55°
2026-05-09 17:20 41.51037 -72.84573 29604 ft 549 kts 54°
2026-05-09 17:20 41.52969 -72.80163 29959 ft 551 kts 54°
2026-05-09 17:20 41.54908 -72.75751 30350 ft 550 kts 54°
2026-05-09 17:21 41.56844 -72.71339 30775 ft 549 kts 54°
2026-05-09 17:21 41.58744 -72.66999 31172 ft 548 kts 54°
2026-05-09 17:21 41.60660 -72.62606 31581 ft 547 kts 54°
2026-05-09 17:21 41.62579 -72.58203 31951 ft 547 kts 54°
2026-05-09 17:22 41.64491 -72.53810 32315 ft 546 kts 54°
2026-05-09 17:22 41.66424 -72.49450 32680 ft 545 kts 54°
2026-05-09 17:22 41.68386 -72.45102 33056 ft 544 kts 53°
2026-05-09 17:22 41.70349 -72.40776 33465 ft 543 kts 53°
2026-05-09 17:23 41.72310 -72.36451 33835 ft 543 kts 53°
2026-05-09 17:23 41.74272 -72.32108 34145 ft 543 kts 54°
2026-05-09 17:23 41.76221 -72.27772 34405 ft 543 kts 54°
2026-05-09 17:23 41.78141 -72.23485 34648 ft 543 kts 54°
2026-05-09 17:25 41.87885 -72.01604 34981 ft 543 kts 54°
2026-05-09 17:25 41.89813 -71.97255 34977 ft 541 kts 54°
2026-05-09 17:25 41.93655 -71.88580 34986 ft 539 kts 54°
2026-05-09 17:26 41.97518 -71.79959 34994 ft 538 kts 53°
2026-05-09 17:26 42.01563 -71.71511 35001 ft 537 kts 52°
2026-05-09 17:27 42.05620 -71.63111 34998 ft 538 kts 52°
2026-05-09 17:27 42.09658 -71.54629 35003 ft 539 kts 53°
2026-05-09 17:28 42.13690 -71.46079 35000 ft 540 kts 53°
2026-05-09 17:28 42.17710 -71.37526 34996 ft 540 kts 53°
2026-05-09 17:29 42.21732 -71.28956 34996 ft 541 kts 53°
2026-05-09 17:29 42.25749 -71.20372 35001 ft 541 kts 53°
2026-05-09 17:30 42.29760 -71.11778 34986 ft 541 kts 53°
2026-05-09 17:30 42.33766 -71.03174 35019 ft 540 kts 53°
2026-05-09 17:31 42.38230 -70.95187 35001 ft 531 kts 41°
2026-05-09 17:32 42.50190 -70.78492 35038 ft 530 kts 40°
2026-05-09 17:33 42.56157 -70.70048 35025 ft 530 kts 41°
2026-05-09 17:33 42.61212 -70.62835 35032 ft 531 kts 41°
2026-05-09 17:34 42.66303 -70.55552 35033 ft 532 kts 41°
2026-05-09 17:35 42.83275 -70.31165 35033 ft 533 kts 41°
2026-05-09 17:36 42.88358 -70.23823 35038 ft 533 kts 42°
2026-05-09 17:36 42.93450 -70.16446 35049 ft 533 kts 42°
2026-05-09 17:37 42.98501 -70.09111 35042 ft 533 kts 42°
2026-05-09 17:37 43.03582 -70.01714 35048 ft 533 kts 42°
2026-05-09 17:38 43.08655 -69.94308 35052 ft 534 kts 42°
2026-05-09 17:39 43.16259 -69.83172 35052 ft 534 kts 42°
2026-05-09 17:39 43.18795 -69.79449 34890 ft 534 kts 41°
2026-05-09 17:39 43.21331 -69.75719 34957 ft 533 kts 41°
2026-05-09 17:40 43.26386 -69.68270 35053 ft 533 kts 41°
2026-05-09 17:40 43.31420 -69.60840 35076 ft 536 kts 41°
2026-05-09 17:41 43.36500 -69.53320 35075 ft 538 kts 41°
2026-05-09 17:41 43.41596 -69.45753 35082 ft 539 kts 41°
2026-05-09 17:42 43.46698 -69.38154 35084 ft 540 kts 41°
2026-05-09 17:42 43.51787 -69.30556 35085 ft 539 kts 41°
2026-05-09 17:43 43.56869 -69.22948 35081 ft 538 kts 41°
2026-05-09 17:43 43.61933 -69.15348 35074 ft 537 kts 41°
2026-05-09 17:44 43.66978 -69.07755 35064 ft 536 kts 41°
2026-05-09 17:44 43.72008 -69.00167 35086 ft 535 kts 41°
2026-05-09 17:45 43.77027 -68.92575 35070 ft 534 kts 41°
2026-05-09 17:45 43.82003 -68.85026 35075 ft 534 kts 41°
2026-05-09 17:46 43.87006 -68.77418 35080 ft 533 kts 41°
2026-05-09 17:46 43.91999 -68.69804 35081 ft 533 kts 41°
2026-05-09 17:47 43.96983 -68.62182 35088 ft 533 kts 41°
2026-05-09 17:47 44.01970 -68.54535 35089 ft 533 kts 41°
2026-05-09 17:48 44.06912 -68.46936 35082 ft 533 kts 41°
2026-05-09 17:48 44.11896 -68.39252 35088 ft 533 kts 41°
2026-05-09 17:49 44.16858 -68.31582 35083 ft 532 kts 41°
2026-05-09 17:49 44.21807 -68.23912 35078 ft 532 kts 41°
2026-05-09 17:50 44.26719 -68.16276 35085 ft 531 kts 41°
2026-05-09 17:50 44.34108 -68.04754 35082 ft 531 kts 41°
2026-05-09 17:51 44.39023 -67.97063 35081 ft 530 kts 41°
2026-05-09 17:51 44.43941 -67.89347 35086 ft 530 kts 41°
2026-05-09 17:52 44.48844 -67.81631 35083 ft 530 kts 41°
2026-05-09 17:52 44.53757 -67.73881 35082 ft 530 kts 41°
2026-05-09 17:53 44.58625 -67.66179 35081 ft 530 kts 41°
2026-05-09 17:53 44.63510 -67.58430 35086 ft 531 kts 41°
2026-05-09 17:54 44.68407 -67.50639 35070 ft 531 kts 41°
2026-05-09 17:54 44.73296 -67.42839 35078 ft 531 kts 41°
2026-05-09 17:55 44.78176 -67.35032 35078 ft 531 kts 41°
2026-05-09 17:55 44.83050 -67.27211 35083 ft 531 kts 41°
2026-05-09 17:56 44.87908 -67.19414 35077 ft 530 kts 40°
2026-05-09 17:57 44.96121 -67.09427 35073 ft 514 kts 27°
2026-05-09 17:57 45.01943 -67.03575 35070 ft 514 kts 27°
2026-05-09 17:58 45.07763 -66.97687 35075 ft 515 kts 27°
2026-05-09 17:58 45.13531 -66.91772 35071 ft 515 kts 28°
2026-05-09 17:59 45.19328 -66.85783 35062 ft 516 kts 28°
2026-05-09 17:59 45.25133 -66.79765 35062 ft 517 kts 28°
2026-05-09 18:00 45.30939 -66.73734 35062 ft 517 kts 28°
2026-05-09 18:00 45.36749 -66.67687 35061 ft 518 kts 28°
2026-05-09 18:01 45.42563 -66.61621 35060 ft 518 kts 29°
2026-05-09 18:01 45.48380 -66.55535 35061 ft 518 kts 29°
2026-05-09 18:02 45.54195 -66.49435 35044 ft 518 kts 30°
2026-05-09 18:02 45.60001 -66.43328 35047 ft 518 kts 30°
2026-05-09 18:03 45.65810 -66.37202 35045 ft 518 kts 30°
2026-05-09 18:03 45.71617 -66.31062 35036 ft 518 kts 30°
2026-05-09 18:04 45.77376 -66.24957 35033 ft 518 kts 30°
2026-05-09 18:04 45.83171 -66.18798 35040 ft 518 kts 31°
2026-05-09 18:05 45.88953 -66.12637 35038 ft 518 kts 31°
2026-05-09 18:05 45.94734 -66.06460 35041 ft 517 kts 31°
2026-05-09 18:06 46.00509 -66.00272 35045 ft 517 kts 31°
2026-05-09 18:06 46.06248 -65.94107 35048 ft 517 kts 32°
2026-05-09 18:07 46.12017 -65.87892 35041 ft 517 kts 32°
2026-05-09 18:07 46.17784 -65.81664 35044 ft 517 kts 32°
2026-05-09 18:08 46.23552 -65.75417 35049 ft 517 kts 32°
2026-05-09 18:08 46.29308 -65.69168 35041 ft 517 kts 32°
2026-05-09 18:09 46.35064 -65.62901 35037 ft 518 kts 32°
2026-05-09 18:09 46.40775 -65.56665 35038 ft 518 kts 32°
2026-05-09 18:10 46.46530 -65.50366 35050 ft 518 kts 33°
2026-05-09 18:10 46.52273 -65.44063 35038 ft 518 kts 33°
2026-05-09 18:11 46.58023 -65.37734 35038 ft 518 kts 33°
2026-05-09 18:11 46.63764 -65.31398 35038 ft 518 kts 33°
2026-05-09 18:12 46.69495 -65.25055 35038 ft 518 kts 33°
2026-05-09 18:12 46.75236 -65.18685 35038 ft 518 kts 33°
2026-05-09 18:13 46.80928 -65.12351 35037 ft 518 kts 33°
2026-05-09 18:13 46.86652 -65.05964 35034 ft 518 kts 33°
2026-05-09 18:14 46.92373 -64.99564 35030 ft 518 kts 33°
2026-05-09 18:14 46.98094 -64.93145 35033 ft 517 kts 34°
2026-05-09 18:15 47.03804 -64.86721 35028 ft 518 kts 34°
2026-05-09 18:15 47.09510 -64.80283 35029 ft 518 kts 34°
2026-05-09 18:16 47.15188 -64.73860 35027 ft 518 kts 34°
2026-05-09 18:16 47.20896 -64.67385 35025 ft 518 kts 34°
2026-05-09 18:17 47.26606 -64.60889 35025 ft 518 kts 34°
2026-05-09 18:17 47.32309 -64.54383 35029 ft 518 kts 34°
2026-05-09 18:18 47.38013 -64.47857 35018 ft 519 kts 34°
2026-05-09 18:18 47.43680 -64.41356 35023 ft 519 kts 34°
2026-05-09 18:19 47.49381 -64.34797 35024 ft 519 kts 34°
2026-05-09 18:19 47.57917 -64.24941 35033 ft 519 kts 35°
2026-05-09 18:20 47.63610 -64.18345 35031 ft 519 kts 35°
2026-05-09 18:20 47.69294 -64.11741 35031 ft 519 kts 35°
2026-05-09 18:21 47.74979 -64.05117 35031 ft 519 kts 35°
2026-05-09 18:21 47.80660 -63.98479 35026 ft 519 kts 35°
2026-05-09 18:22 47.86304 -63.91863 35028 ft 519 kts 35°
2026-05-09 18:22 47.91979 -63.85194 35031 ft 520 kts 35°
2026-05-09 18:23 47.97655 -63.78504 35028 ft 520 kts 36°
2026-05-09 18:23 48.02376 -63.72925 35026 ft 520 kts 36°
2026-05-09 18:24 48.08054 -63.66196 35026 ft 520 kts 36°
2026-05-09 18:25 48.16556 -63.56086 35027 ft 520 kts 36°
2026-05-09 18:25 48.22224 -63.49320 35026 ft 520 kts 36°
2026-05-09 18:26 48.27882 -63.42548 35027 ft 521 kts 36°
2026-05-09 18:26 48.33509 -63.35792 35025 ft 521 kts 36°
2026-05-09 18:27 48.39169 -63.28978 35025 ft 521 kts 36°
2026-05-09 18:27 48.44827 -63.22146 35024 ft 521 kts 36°
2026-05-09 18:28 48.50474 -63.15306 35026 ft 521 kts 36°
2026-05-09 18:28 48.56100 -63.08472 35030 ft 521 kts 37°
2026-05-09 18:29 48.61750 -63.01589 35027 ft 521 kts 37°
2026-05-09 18:29 48.67390 -62.94697 35027 ft 521 kts 37°
2026-05-09 18:30 48.73036 -62.87778 35029 ft 521 kts 37°
2026-05-09 18:30 48.78667 -62.80857 35024 ft 521 kts 37°
2026-05-09 18:31 48.84267 -62.73952 35020 ft 521 kts 37°
2026-05-09 18:31 48.89896 -62.66992 35023 ft 521 kts 37°
2026-05-09 18:32 48.95519 -62.60018 35021 ft 521 kts 37°
2026-05-09 18:32 49.01134 -62.53032 35018 ft 521 kts 37°
2026-05-09 18:33 49.06742 -62.46035 35014 ft 520 kts 38°
2026-05-09 18:33 49.12342 -62.39026 35010 ft 520 kts 38°
2026-05-09 18:34 49.17938 -62.32002 35004 ft 520 kts 38°
2026-05-09 18:34 49.23491 -62.25011 34998 ft 520 kts 38°
2026-05-09 18:35 49.29076 -62.17957 35002 ft 520 kts 38°
2026-05-09 18:35 49.34660 -62.10884 34997 ft 520 kts 38°
2026-05-09 18:36 49.40233 -62.03803 34995 ft 520 kts 38°
2026-05-09 18:36 49.45816 -61.96688 34991 ft 520 kts 38°
2026-05-09 18:37 49.51383 -61.89571 34988 ft 520 kts 38°
2026-05-09 18:37 49.56910 -61.82484 34990 ft 520 kts 38°
2026-05-09 18:38 49.62471 -61.75332 34986 ft 519 kts 39°
2026-05-09 18:38 49.68014 -61.68180 34986 ft 519 kts 39°
2026-05-09 18:40 49.90112 -61.39450 34988 ft 520 kts 39°
2026-05-09 18:41 49.95641 -61.32206 34985 ft 520 kts 39°
2026-05-09 18:41 50.01168 -61.24942 34987 ft 520 kts 39°
2026-05-09 18:42 50.06689 -61.17663 34986 ft 520 kts 39°
2026-05-09 18:42 50.12214 -61.10356 34979 ft 520 kts 39°
2026-05-09 18:43 50.17688 -61.03093 34978 ft 520 kts 40°
2026-05-09 18:43 50.23199 -60.95760 34981 ft 520 kts 40°
2026-05-09 18:44 50.28708 -60.88405 34970 ft 521 kts 40°
2026-05-09 18:44 50.34222 -60.81020 34974 ft 521 kts 40°
2026-05-09 18:45 50.38800 -60.74871 34972 ft 521 kts 40°
2026-05-09 18:45 50.45194 -60.66255 34966 ft 521 kts 40°
2026-05-09 18:46 50.50693 -60.58820 34970 ft 521 kts 40°
2026-05-09 18:46 50.56182 -60.51375 34965 ft 521 kts 40°
2026-05-09 18:47 50.61674 -60.43902 34955 ft 522 kts 40°
2026-05-09 18:47 50.67161 -60.36411 34957 ft 522 kts 41°
2026-05-09 18:48 50.72647 -60.28897 34953 ft 522 kts 41°
2026-05-09 18:48 50.78126 -60.21370 34951 ft 522 kts 41°
2026-05-09 18:49 50.83567 -60.13871 34951 ft 522 kts 41°
2026-05-09 18:49 50.89050 -60.06289 34952 ft 523 kts 41°
2026-05-09 18:50 50.94529 -59.98687 34952 ft 523 kts 41°
2026-05-09 18:50 51.00005 -59.91066 34953 ft 523 kts 41°
2026-05-09 18:51 51.05473 -59.83430 34957 ft 523 kts 41°
2026-05-09 18:51 51.10905 -59.75820 34956 ft 523 kts 41°
2026-05-09 18:52 51.16361 -59.68151 34963 ft 524 kts 41°
2026-05-09 18:52 51.21827 -59.60443 34960 ft 524 kts 42°
2026-05-09 18:53 51.27284 -59.52722 34966 ft 524 kts 42°
2026-05-09 18:53 51.32740 -59.44977 34969 ft 524 kts 42°
2026-05-09 18:54 51.38191 -59.37214 34970 ft 524 kts 42°
2026-05-09 18:54 51.43631 -59.29440 34972 ft 524 kts 42°
2026-05-09 18:55 51.49075 -59.21634 34977 ft 525 kts 42°
2026-05-09 18:55 51.54474 -59.13868 34972 ft 525 kts 43°
2026-05-09 18:56 51.59915 -59.06014 34976 ft 525 kts 43°
2026-05-09 18:56 51.65351 -58.98142 34975 ft 525 kts 43°
2026-05-09 18:57 51.70772 -58.90266 34982 ft 525 kts 43°
2026-05-09 18:57 51.76202 -58.82348 34980 ft 525 kts 43°
2026-05-09 18:58 51.81585 -58.74473 34976 ft 525 kts 43°
2026-05-09 18:58 51.86995 -58.66532 34977 ft 525 kts 43°
2026-05-09 18:59 51.92413 -58.58550 34969 ft 525 kts 43°
2026-05-09 18:59 51.97815 -58.50567 34961 ft 526 kts 44°
2026-05-09 19:00 52.03211 -58.42566 34964 ft 525 kts 44°
2026-05-09 19:00 52.11300 -58.30518 34955 ft 525 kts 44°
2026-05-09 19:01 52.16682 -58.22468 34952 ft 526 kts 44°
2026-05-09 19:01 52.22031 -58.14440 34948 ft 526 kts 44°
2026-05-09 19:02 52.27418 -58.06327 34940 ft 526 kts 44°
2026-05-09 19:02 52.32792 -57.98204 34940 ft 527 kts 45°
2026-05-09 19:03 52.38180 -57.90034 34939 ft 527 kts 45°
2026-05-09 19:03 52.43528 -57.81895 34928 ft 527 kts 45°
2026-05-09 19:04 52.48904 -57.73685 34929 ft 527 kts 45°
2026-05-09 19:04 52.54268 -57.65465 34923 ft 527 kts 45°
2026-05-09 19:05 52.58727 -57.58610 34917 ft 527 kts 45°
2026-05-09 19:05 52.64989 -57.48948 34911 ft 528 kts 45°
2026-05-09 19:06 52.70337 -57.40665 34908 ft 528 kts 45°
2026-05-09 19:06 52.75687 -57.32350 34903 ft 528 kts 46°
2026-05-09 19:07 52.81001 -57.24061 34906 ft 528 kts 46°
2026-05-09 19:07 52.86347 -57.15692 34909 ft 528 kts 46°
2026-05-09 19:08 52.91682 -57.07312 34904 ft 529 kts 46°
2026-05-09 19:08 52.97014 -56.98905 34898 ft 529 kts 46°
2026-05-09 19:09 53.02303 -56.90535 34897 ft 529 kts 47°
2026-05-09 19:09 53.07632 -56.82076 34898 ft 529 kts 47°
2026-05-09 19:10 53.12645 -56.73192 34906 ft 524 kts 54°
2026-05-09 19:10 53.17226 -56.63707 34902 ft 524 kts 56°
2026-05-09 19:11 53.20990 -56.55788 34908 ft 524 kts 56°
2026-05-09 19:11 53.25541 -56.46269 34914 ft 525 kts 55°
2026-05-09 19:12 53.30870 -56.35184 34927 ft 525 kts 55°
2026-05-09 19:12 53.34708 -56.27189 34932 ft 526 kts 56°
2026-05-09 19:13 53.39263 -56.17661 34937 ft 526 kts 56°
2026-05-09 19:13 53.43827 -56.08071 34949 ft 526 kts 56°
2026-05-09 19:14 53.48385 -55.98453 34952 ft 526 kts 56°
2026-05-09 19:14 53.52938 -55.88812 34959 ft 526 kts 56°
2026-05-09 19:15 53.57450 -55.79219 34960 ft 526 kts 57°
2026-05-09 19:15 53.61986 -55.69536 34962 ft 526 kts 57°
2026-05-09 19:16 53.66510 -55.59843 34959 ft 526 kts 57°
2026-05-09 19:16 53.71027 -55.50129 34958 ft 526 kts 57°
2026-05-09 19:17 53.75541 -55.40380 34961 ft 526 kts 57°
2026-05-09 19:17 53.80019 -55.30675 34956 ft 526 kts 57°
2026-05-09 19:18 53.84516 -55.20889 34951 ft 527 kts 58°
2026-05-09 19:18 53.89008 -55.11076 34951 ft 527 kts 58°
2026-05-09 19:19 53.93501 -55.01220 34947 ft 528 kts 58°
2026-05-09 19:19 53.97981 -54.91355 34962 ft 528 kts 58°
2026-05-09 19:20 54.02468 -54.81436 34952 ft 529 kts 59°
2026-05-09 19:20 54.06947 -54.71494 34948 ft 529 kts 59°
2026-05-09 19:21 54.11419 -54.61528 34941 ft 529 kts 59°
2026-05-09 19:21 54.15856 -54.51601 34938 ft 530 kts 59°
2026-05-09 19:22 54.20317 -54.41580 34935 ft 530 kts 59°
2026-05-09 19:22 54.24772 -54.31533 34932 ft 530 kts 60°
2026-05-09 19:23 54.29224 -54.21450 34930 ft 530 kts 60°
2026-05-09 19:23 54.33668 -54.11348 34919 ft 531 kts 60°
2026-05-09 19:24 54.38080 -54.01277 34914 ft 531 kts 61°
2026-05-09 19:24 54.42513 -53.91115 34915 ft 531 kts 61°